STARLINK-2565, 48280

Orbit data source: Space-Track

STARLINK-2565, 48280 is a payload satellite owned by SpaceX/Seattle (US) in LEO that was launched on Thu, 29 Apr 2021 UTC via an FALCON 9 launch vehicle from the Air Force Eastern Test Range (AFETR). Payload-class satellites include a variety of spacecraft equipped with specific instruments for various scientific and technological missions. These include communications satellites like Starlink; space stations such as the ISS; scientific satellites like the Hubble; Earth observation satellites from companies like Planet Labs, Umbra, and HawkEye 360; GPS; miniature CubeSats for education and research; and military/defense satellites.

Loading next visibility...
Identifier
48280, 2021-036E
Orbit
LEO
Country
Flag of USUS
Related business
Manufacturer
SpaceX/Seattle
Mission
Operational Commercial Communications
Bus & Motor
STARLINK, Unknown motor
Mass
260 kg wet, ~248 kg dry
Launch date (UTC)
2021-04-29 (5 years ago)
Launch vehicle
FALCON 9
Launch site
Air Force Eastern Test Range (AFETR)
Object type
Payload
Rocket body
Debris
Shape & HBR
Box + 1 Pan, 10.1 m
Radar Cross Section
13.562 m², Large (>1 m²)

Expand to show TLE details & history
Last TLE update: 10 hours ago

TLE from 10 hours ago
0 STARLINK-2565
1 48280U 21036E   26036.25485066 -.00001376  00000-0 -73480-4 0  9992
2 48280  53.0567 242.2218 0001214  92.0296 268.0833 15.06403072263219
Epoch: 2026-02-05T06:06Z
TLE epoch observation values (Epoch: 2026-02-05T06:06:59.097Z)
Latitude
0.00008°
Longitude
15.06591°
Altitude
548.11 km
Speed
7.589 km/s
True Right ascension
16h 08m 53s
True Declination
0° 00' 00"
Sunlit
Object was in daylight at epoch
Visualization orbit readout
Latitude
Unknown
Longitude
Unknown
Altitude
Unknown
Speed
Unknown
Apparent Right ascension
Unknown
Apparent Declination
Unknown
Sunlit
N/A
Visualization observer readout
Local Sidereal Time
18:28:31
Azimuth
Unknown
Elevation
Unknown
Doppler factor
Unknown
Orbital elements
Apogee altitude
548.313 km
Perigee altitude
546.632 km
Semi-major axis
6,925.61 km
Eccentricity
0.00012
Inclination
53.0567°
RAAN
242.2218°
Arg. of periapsis
92.0296°
True anomaly
268.0694°
Mean anomaly
268.0833°
Eccentric anomaly
268.07635°
Mean motion
3.76579 °/min
Orbital period
95.6 mins
BSTAR
-0.00007348
Loading maneuver chart data...
Computing Atmospheric mass density...
Loading historical data...
Loading historical data...
Loading historical data...
Loading historical data...
Loading historical data...
Loading historical data...
Loading historical data...

Documentation

Showing up to 5 results
|